Overview Statistics Trail Chart Weather Telemetry Raw packets
 

This is the latest recevied weather packets stored in our database for station/object N5JXS. If no packets are shown the sender has not sent any weather packets the latest 10 day(s).

<< 21 22 23 24 25 26 27 >>
Time Temp. Humidity Pressure Rain* Wind** Luminosity Snow
1788478764 27.22° C 21% 1021.9 hPa 0 mm - 64 W/m² -
1788478460 27.78° C 20% 1022.1 hPa 0 mm - 48 W/m² -
1788478174 27.78° C 20% 1022.2 hPa 0 mm - 100 W/m² -
1788477855 27.78° C 20% 1022 hPa 0 mm - 88 W/m² -
1788477555 27.78° C 21% 1022 hPa 0 mm - 98 W/m² -
1788477250 27.22° C 22% 1022.1 hPa 0 mm - 71 W/m² -
1788476945 26.67° C 24% 1022.4 hPa 0 mm - 69 W/m² -
1788476640 27.22° C 22% 1021.9 hPa 0 mm - 46 W/m² -
1788476336 27.78° C 22% 1022.1 hPa 0 mm - 39 W/m² -
1788476032 28.33° C 21% 1022.2 hPa 0 mm - 56 W/m² -
1788475728 27.78° C 21% 1022.1 hPa 0 mm - 77 W/m² -
1788475424 27.78° C 21% 1022.4 hPa 0 mm - 101 W/m² -
1788475120 27.78° C 21% 1022.4 hPa 0 mm - 39 W/m² -
1788474818 27.78° C 20% 1022.1 hPa 0 mm - 34 W/m² -
1788474513 28.33° C 19% 1022.4 hPa 0 mm - 54 W/m² -
1788474213 28.89° C 19% 1022.2 hPa 0 mm - 38 W/m² -
1788473907 29.44° C 18% 1022.5 hPa 0 mm - 34 W/m² -
1788473606 29.44° C 19% 1022.2 hPa 0 mm - 103 W/m² -
1788473305 29.44° C 19% 1022.5 hPa 0 mm - 62 W/m² -
1788472999 29.44° C 18% 1022.4 hPa 0 mm - 67 W/m² -
1788472697 29.44° C 18% 1022.1 hPa 0 mm - 41 W/m² -
1788472394 28.89° C 18% 1022.2 hPa 0 mm - 68 W/m² -
1788472092 28.89° C 18% 1022.6 hPa 0 mm - 268 W/m² -
1788471813 29.44° C 18% 1022.5 hPa 0 mm - 474 W/m² -
1788471482 30° C 18% 1022.4 hPa 0 mm - 469 W/m² -

* Rain latest hour (hover to see other rain measurements)
** Current wind speed in m/s (hover to see current wind gust speed)